When you browse on this site, cookies collect data to enhance your experience and personalize the content and advertising you see.
Visit our Privacy Policy to learn more. By continuing to use the site, you agree to this use of cookies and data.
  • In Sweden
  • List of Countries
  • For 7 days
  • Water Temperature
  • Satellite Maps
  • Weather Map
  • Weather Widgets
  • user-avatar
    Login

    Hourly Weather Thomasville

    Today, 20 May, Monday

    Time Temperature Precipitation Wind Pressure Humidity
    00:00 +21°C° 0 mm 3 mps 740 mmHg 79%
    01:00 +21°C° 0 mm 3 mps 740 mmHg 82%
    02:00 +20°C° 0 mm 3 mps 740 mmHg 85%
    03:00 +20°C° 0 mm 3 mps 740 mmHg 88%
    04:00 +20°C° 0 mm 3 mps 740 mmHg 91%
    05:00 +20°C° 0 mm 3 mps 740 mmHg 89%
    06:00 +21°C° 0 mm 4 mps 741 mmHg 87%
    07:00 +22°C° 0 mm 4 mps 741 mmHg 85%
    08:00 +25°C° 0.1 mm 4 mps 741 mmHg 79%
    09:00 +26°C° 0.1 mm 4 mps 740 mmHg 73%
    10:00 +28°C° 0.1 mm 5 mps 740 mmHg 67%
    11:00 +29°C° 0.4 mm 5 mps 740 mmHg 62%
    12:00 +30°C° 0.4 mm 5 mps 740 mmHg 57%
    13:00 +32°C° 0.4 mm 5 mps 739 mmHg 52%
    14:00 +32°C° 0.2 mm 5 mps 739 mmHg 54%
    15:00 +30°C° 0.2 mm 4 mps 739 mmHg 57%
    16:00 +30°C° 0.2 mm 4 mps 738 mmHg 59%
    17:00 +29°C° 0 mm 3 mps 738 mmHg 64%
    18:00 +27°C° 0 mm 3 mps 738 mmHg 69%
    19:00 +26°C° 0 mm 2 mps 738 mmHg 74%
    20:00 +25°C° 0 mm 2 mps 738 mmHg 71%
    21:00 +24°C° 0 mm 3 mps 739 mmHg 68%
    22:00 +22°C° 0 mm 3 mps 739 mmHg 65%
    23:00 +21°C° 0 mm 3 mps 739 mmHg 64%

    Tomorrow, 21 May, Tuesday

    Time Temperature Precipitation Wind Pressure Humidity
    00:00 +20°C° 0 mm 3 mps 739 mmHg 62%
    01:00 +19°C° 0 mm 3 mps 739 mmHg 60%
    02:00 +17°C° 0 mm 3 mps 739 mmHg 64%
    03:00 +16°C° 0 mm 2 mps 739 mmHg 69%
    04:00 +15°C° 0 mm 2 mps 739 mmHg 73%
    05:00 +16°C° 0 mm 2 mps 740 mmHg 73%
    06:00 +17°C° 0 mm 3 mps 740 mmHg 73%
    07:00 +17°C° 0 mm 3 mps 740 mmHg 73%
    08:00 +19°C° 0 mm 3 mps 741 mmHg 67%
    09:00 +21°C° 0 mm 3 mps 741 mmHg 60%
    10:00 +24°C° 0 mm 3 mps 741 mmHg 54%
    11:00 +25°C° 0 mm 2 mps 741 mmHg 49%
    12:00 +26°C° 0 mm 2 mps 741 mmHg 44%
    13:00 +28°C° 0 mm 1 mps 740 mmHg 39%
    14:00 +28°C° 0 mm 1 mps 740 mmHg 39%
    15:00 +28°C° 0 mm 1 mps 740 mmHg 39%
    16:00 +29°C° 0 mm 1 mps 739 mmHg 38%
    17:00 +27°C° 0 mm 1 mps 739 mmHg 45%
    18:00 +25°C° 0 mm 1 mps 740 mmHg 52%
    19:00 +23°C° 0 mm 2 mps 740 mmHg 59%
    20:00 +21°C° 0 mm 2 mps 741 mmHg 59%
    21:00 +20°C° 0 mm 2 mps 741 mmHg 60%
    22:00 +19°C° 0 mm 2 mps 742 mmHg 61%
    23:00 +18°C° 0 mm 2 mps 742 mmHg 64%

    Day after tomorrow, 22 May, Wednesday

    Time Temperature Precipitation Wind Pressure Humidity
    00:00 +18°C° 0 mm 2 mps 742 mmHg 67%
    01:00 +17°C° 0 mm 3 mps 743 mmHg 71%
    02:00 +16°C° 0 mm 2 mps 743 mmHg 71%
    03:00 +15°C° 0 mm 2 mps 743 mmHg 71%
    04:00 +15°C° 0 mm 2 mps 743 mmHg 71%
    05:00 +15°C° 0 mm 2 mps 744 mmHg 70%
    06:00 +16°C° 0 mm 2 mps 744 mmHg 69%
    07:00 +17°C° 0 mm 2 mps 745 mmHg 68%
    08:00 +19°C° 0 mm 2 mps 745 mmHg 61%
    09:00 +21°C° 0 mm 2 mps 746 mmHg 55%
    10:00 +24°C° 0 mm 2 mps 746 mmHg 48%
    11:00 +25°C° 0 mm 2 mps 746 mmHg 47%
    12:00 +26°C° 0 mm 2 mps 746 mmHg 46%
    13:00 +28°C° 0 mm 1 mps 745 mmHg 45%
    14:00 +28°C° 0 mm 1 mps 745 mmHg 46%
    15:00 +29°C° 0 mm 2 mps 745 mmHg 47%
    16:00 +29°C° 0 mm 2 mps 744 mmHg 48%
    17:00 +27°C° 0 mm 2 mps 744 mmHg 54%
    18:00 +26°C° 0 mm 2 mps 744 mmHg 60%
    19:00 +24°C° 0 mm 2 mps 745 mmHg 66%
    20:00 +23°C° 0 mm 2 mps 745 mmHg 67%
    21:00 +21°C° 0 mm 2 mps 745 mmHg 69%
    22:00 +20°C° 0 mm 3 mps 746 mmHg 70%
    23:00 +19°C° 0 mm 2 mps 746 mmHg 71%

    23 May, Thursday

    Time Temperature Precipitation Wind Pressure Humidity
    00:00 +19°C° 0 mm 2 mps 746 mmHg 72%
    01:00 +18°C° 0 mm 2 mps 746 mmHg 73%
    02:00 +18°C° 0 mm 2 mps 746 mmHg 74%
    03:00 +18°C° 0 mm 2 mps 745 mmHg 76%
    04:00 +18°C° 0 mm 3 mps 745 mmHg 77%
    05:00 +19°C° 0 mm 3 mps 746 mmHg 77%
    06:00 +20°C° 0 mm 3 mps 746 mmHg 77%
    07:00 +21°C° 0 mm 4 mps 746 mmHg 76%
    08:00 +23°C° 0 mm 4 mps 746 mmHg 73%
    09:00 +26°C° 0 mm 4 mps 746 mmHg 70%
    10:00 +28°C° 0 mm 4 mps 746 mmHg 67%
    11:00 +30°C° 0.1 mm 3 mps 746 mmHg 63%
    12:00 +31°C° 0.1 mm 3 mps 745 mmHg 59%
    13:00 +33°C° 0.1 mm 3 mps 745 mmHg 55%
    14:00 +34°C° 0.1 mm 3 mps 744 mmHg 54%
    15:00 +34°C° 0.1 mm 3 mps 744 mmHg 53%
    16:00 +34°C° 0.1 mm 3 mps 743 mmHg 52%
    17:00 +33°C° 0 mm 3 mps 743 mmHg 58%
    18:00 +30°C° 0 mm 3 mps 743 mmHg 64%
    19:00 +29°C° 0 mm 2 mps 743 mmHg 71%
    20:00 +27°C° 0.2 mm 2 mps 744 mmHg 74%
    21:00 +26°C° 0.2 mm 2 mps 744 mmHg 77%
    22:00 +25°C° 0.2 mm 2 mps 744 mmHg 81%
    23:00 +25°C° 0 mm 2 mps 744 mmHg 83%

    24 May, Friday

    Time Temperature Precipitation Wind Pressure Humidity
    00:00 +24°C° 0 mm 2 mps 743 mmHg 85%
    01:00 +23°C° 0 mm 2 mps 743 mmHg 87%
    02:00 +23°C° 0 mm 2 mps 743 mmHg 87%
    03:00 +23°C° 0 mm 2 mps 743 mmHg 86%
    04:00 +23°C° 0 mm 2 mps 743 mmHg 86%
    05:00 +24°C° 0 mm 2 mps 743 mmHg 84%
    06:00 +24°C° 0 mm 2 mps 743 mmHg 82%
    07:00 +25°C° 0 mm 2 mps 743 mmHg 80%
    08:00 +27°C° 0 mm 3 mps 743 mmHg 72%
    09:00 +29°C° 0 mm 3 mps 743 mmHg 63%
    10:00 +32°C° 0 mm 4 mps 743 mmHg 55%
    11:00 +33°C° 0 mm 4 mps 743 mmHg 51%
    12:00 +34°C° 0 mm 4 mps 743 mmHg 47%
    13:00 +36°C° 0 mm 4 mps 742 mmHg 43%
    14:00 +35°C° 0 mm 3 mps 742 mmHg 45%
    15:00 +35°C° 0 mm 3 mps 742 mmHg 47%
    16:00 +35°C° 0 mm 2 mps 742 mmHg 48%
    17:00 +34°C° 0 mm 2 mps 742 mmHg 53%
    18:00 +31°C° 0 mm 1 mps 742 mmHg 58%
    19:00 +30°C° 0 mm 1 mps 742 mmHg 63%
    20:00 +28°C° 0 mm 1 mps 742 mmHg 65%
    21:00 +27°C° 0 mm 1 mps 742 mmHg 67%
    22:00 +26°C° 0 mm 1 mps 742 mmHg 69%
    23:00 +25°C° 0 mm 1 mps 742 mmHg 71%

    25 May, Saturday

    Time Temperature Precipitation Wind Pressure Humidity
    00:00 +25°C° 0 mm 1 mps 742 mmHg 72%
    01:00 +24°C° 0 mm 1 mps 742 mmHg 74%
    02:00 +24°C° 0 mm 1 mps 742 mmHg 75%
    03:00 +23°C° 0 mm 1 mps 742 mmHg 77%
    04:00 +23°C° 0 mm 2 mps 742 mmHg 79%
    05:00 +23°C° 0 mm 2 mps 743 mmHg 79%
    06:00 +24°C° 0 mm 2 mps 743 mmHg 80%
    07:00 +24°C° 0 mm 2 mps 744 mmHg 81%
    08:00 +26°C° 0 mm 2 mps 744 mmHg 75%
    09:00 +28°C° 0 mm 2 mps 744 mmHg 69%
    10:00 +29°C° 0 mm 2 mps 744 mmHg 63%
    11:00 +30°C° 0.6 mm 2 mps 744 mmHg 60%
    12:00 +31°C° 0.6 mm 2 mps 743 mmHg 58%
    13:00 +32°C° 0.6 mm 2 mps 743 mmHg 56%
    14:00 +32°C° 0.2 mm 2 mps 743 mmHg 54%
    15:00 +34°C° 0.2 mm 2 mps 742 mmHg 52%
    16:00 +33°C° 0.2 mm 1 mps 742 mmHg 51%
    17:00 +32°C° 0 mm 1 mps 742 mmHg 56%
    18:00 +30°C° 0 mm 1 mps 742 mmHg 61%
    19:00 +29°C° 0 mm 1 mps 742 mmHg 67%
    20:00 +28°C° 1 mm 1 mps 743 mmHg 72%
    21:00 +26°C° 1 mm 1 mps 743 mmHg 77%
    22:00 +25°C° 1 mm 1 mps 743 mmHg 82%
    23:00 +24°C° 0.1 mm 1 mps 743 mmHg 86%
    Show more